Oakland, MD

3:26 PM EDT on July 24, 2017 (GMT -0400)
Oakland

Weather History for K2G4 - April, 2014

Change the Weather History Date:

Friday, April 25, 2014

  Actual Average (KMGW) Record (KMGW)
Temperature  
Mean Temperature 50 °F -  
Max Temperature 59 °F 63 °F 88 °F (2009)
Min Temperature 41 °F 41 °F 26 °F (1956)
Degree Days  
Heating Degree Days 14    
Moisture  
Dew Point 24 °F    
Average Humidity 46    
Maximum Humidity 100    
Minimum Humidity 16    
Precipitation  
Precipitation 0.00 in - - ()
Sea Level Pressure  
Sea Level Pressure 29.82 in    
Wind  
Wind Speed 13 mph (SSE)    
Max Wind Speed 20 mph    
Max Gust Speed 29 mph    
Visibility 9 miles    
Events      
Averages and records for this station are not official NWS values.
T = Trace of Precipitation, MM = Missing Value Source: NWS Daily Summary

Daily Weather History Graph

Daily Weather History Graph

Search for Another Location

Airport or City:

Trip Planner

Search our weather history database for the weather conditions in past years. The results will help you decide how hot, cold, wet, or windy it might be!

Date:

Astronomy

Apr. 25, 2014 Rise Set
Actual Time 6:25 AM EDT 8:05 PM EDT
Civil Twilight 5:57 AM EDT 8:33 PM EDT
Nautical Twilight 5:22 AM EDT 9:08 PM EDT
Astronomical Twilight 4:46 AM EDT 9:45 PM EDT
Moon 4:12 AM EDT (4/25) 4:26 PM EDT (4/25)
Length of Visible Light 14h 36m
Length of Day
13h 39m
Waning Crescent, 15% of the Moon is Illuminated
Apr 25
Waning Crescent
Apr 29
New
May 6
First Quarter
May 14
Full
May 21
Last Quarter

Hourly Weather History & Observations

Time (EDT) Temp. Windchill Dew Point Humidity Pressure Visibility Wind Dir Wind Speed Gust Speed Precip Events Conditions
12:15 AM 46.4 °F 40.7 °F 1.4 °F 16% 29.96 in 10.0 mi ESE 12.7 mph - N/A   Clear
12:35 AM 46.4 °F 40.4 °F 1.4 °F 16% 29.96 in 10.0 mi ESE 13.8 mph - N/A   Clear
12:55 AM 46.4 °F 39.8 °F 1.4 °F 16% 29.94 in 10.0 mi ESE 16.1 mph - N/A   Clear
1:15 AM 44.6 °F 38.4 °F 3.2 °F 18% 29.94 in 10.0 mi SE 12.7 mph - N/A   Clear
1:35 AM 44.6 °F 38.4 °F 5.0 °F 20% 29.94 in 10.0 mi SE 12.7 mph - N/A   Scattered Clouds
1:55 AM 44.6 °F 37.8 °F 5.0 °F 20% 29.94 in 10.0 mi SE 15.0 mph - N/A   Mostly Cloudy
2:15 AM 44.6 °F 38.4 °F 6.8 °F 21% 29.93 in 10.0 mi SE 12.7 mph - N/A   Mostly Cloudy
2:35 AM 44.6 °F 38.1 °F 6.8 °F 21% 29.93 in 10.0 mi SE 13.8 mph - N/A   Scattered Clouds
2:55 AM 44.6 °F 37.8 °F 6.8 °F 21% 29.92 in 10.0 mi SE 15.0 mph - N/A   Scattered Clouds
3:15 AM 44.6 °F 37.8 °F 8.6 °F 23% 29.92 in 10.0 mi SE 15.0 mph - N/A   Scattered Clouds
3:35 AM 44.6 °F 38.1 °F 8.6 °F 23% 29.91 in 10.0 mi SE 13.8 mph - N/A   Clear
3:55 AM 44.6 °F 38.1 °F 8.6 °F 23% 29.92 in 10.0 mi SE 13.8 mph 18.4 mph N/A   Mostly Cloudy
4:15 AM 44.6 °F 37.4 °F 8.6 °F 23% 29.91 in 10.0 mi SE 16.1 mph - N/A   Mostly Cloudy
4:35 AM 44.6 °F 37.8 °F 8.6 °F 23% 29.90 in 10.0 mi SE 15.0 mph 20.7 mph N/A   Clear
4:55 AM 44.6 °F 37.8 °F 10.4 °F 25% 29.90 in 10.0 mi SE 15.0 mph - N/A   Mostly Cloudy
5:15 AM 42.8 °F 35.1 °F 10.4 °F 27% 29.90 in 10.0 mi SE 16.1 mph - N/A   Scattered Clouds
5:35 AM 42.8 °F 35.4 °F 10.4 °F 27% 29.88 in 10.0 mi SE 15.0 mph - N/A   Clear
5:55 AM 42.8 °F 35.1 °F 10.4 °F 27% 29.88 in 10.0 mi SE 16.1 mph - N/A   Clear
6:15 AM 42.8 °F 35.4 °F 12.2 °F 29% 29.88 in 10.0 mi SE 15.0 mph 20.7 mph N/A   Scattered Clouds
6:35 AM 42.8 °F 35.4 °F 12.2 °F 29% 29.88 in 10.0 mi SE 15.0 mph - N/A   Scattered Clouds
6:55 AM 42.8 °F 35.8 °F 12.2 °F 29% 29.88 in 10.0 mi SE 13.8 mph - N/A   Clear
7:15 AM 42.8 °F 35.8 °F 14.0 °F 31% 29.87 in 10.0 mi SE 13.8 mph 18.4 mph N/A   Clear
7:35 AM 44.6 °F 37.4 °F 14.0 °F 29% 29.86 in 10.0 mi SE 16.1 mph - N/A   Clear
7:55 AM 46.4 °F 39.2 °F 14.0 °F 27% 29.85 in 10.0 mi SE 18.4 mph 23.0 mph N/A   Clear
8:15 AM 46.4 °F 39.0 °F 14.0 °F 27% 29.84 in 10.0 mi SE 19.6 mph - N/A   Clear
8:35 AM 48.2 °F - 15.8 °F 27% 29.84 in 10.0 mi ESE 17.3 mph 20.7 mph N/A   Clear
8:55 AM 50.0 °F - 17.6 °F 28% 29.84 in 10.0 mi SE 19.6 mph 26.5 mph N/A   Clear
9:15 AM 51.8 °F - 17.6 °F 26% 29.83 in 10.0 mi SE 18.4 mph 24.2 mph N/A   Clear
9:35 AM 51.8 °F - 17.6 °F 26% 29.82 in 10.0 mi SE 17.3 mph - N/A   Clear
9:55 AM 53.6 °F - 19.4 °F 26% 29.81 in 10.0 mi SE 18.4 mph 25.3 mph N/A   Clear
10:15 AM 55.4 °F - 19.4 °F 25% 29.81 in 10.0 mi SE 17.3 mph - N/A   Clear
10:35 AM 55.4 °F - 19.4 °F 25% 29.79 in 10.0 mi SE 18.4 mph 26.5 mph N/A   Clear
10:55 AM 59.0 °F - 21.2 °F 23% 29.80 in 10.0 mi SE 17.3 mph 20.7 mph N/A   Clear
11:15 AM 55.4 °F - 21.2 °F 26% 29.79 in 10.0 mi SE 16.1 mph 23.0 mph N/A   Scattered Clouds
11:35 AM 55.4 °F - 23.0 °F 29% 29.79 in 10.0 mi SE 17.3 mph 21.9 mph N/A   Mostly Cloudy
11:55 AM 55.4 °F - 26.6 °F 33% 29.82 in 10.0 mi Calm Calm - N/A   Overcast
12:15 PM 57.2 °F - 30.2 °F 36% 29.81 in 10.0 mi SE 9.2 mph - N/A   Overcast
12:35 PM 53.6 °F - 35.6 °F 51% 29.79 in 10.0 mi SSE 6.9 mph - N/A   Overcast
12:55 PM 53.6 °F - 41.0 °F 62% 29.80 in 10.0 mi SSW 5.8 mph - N/A   Overcast
1:15 PM 50.0 °F - 42.8 °F 76% 29.79 in 2.5 mi Calm Calm - N/A   Haze
1:35 PM 51.8 °F - 44.6 °F 76% 29.77 in 3.0 mi SSE 3.5 mph - N/A   Haze
1:55 PM 50.0 °F - 48.2 °F 94% 29.75 in 5.0 mi ESE 6.9 mph - N/A   Overcast
2:15 PM 50.0 °F - 50.0 °F 100% 29.75 in 3.0 mi ESE 9.2 mph - N/A   Overcast
2:35 PM 48.2 °F - 48.2 °F 100% 29.76 in 2.0 mi SSE 6.9 mph - N/A   Overcast
2:55 PM 48.2 °F - - N/A% 29.74 in 4.0 mi ESE 9.2 mph - N/A   Haze
3:15 PM 50.0 °F - - N/A% 29.72 in 7.0 mi ESE 10.4 mph - N/A   Overcast
3:40 PM 50.0 °F - - N/A% 29.72 in 7.0 mi SSE 8.1 mph - N/A   Scattered Clouds
4:00 PM 50.0 °F - - N/A% 29.70 in 10.0 mi SSE 6.9 mph - N/A   Clear
4:20 PM 53.6 °F - - N/A% 29.70 in 10.0 mi South 10.4 mph - N/A   Scattered Clouds
4:40 PM 55.4 °F - 55.4 °F 100% 29.70 in 10.0 mi SSW 8.1 mph - N/A   Mostly Cloudy
5:00 PM 53.6 °F - 50.0 °F 88% 29.70 in 10.0 mi SW 9.2 mph 19.6 mph N/A   Mostly Cloudy
5:20 PM 55.4 °F - 50.0 °F 82% 29.70 in 10.0 mi WSW 9.2 mph - N/A   Overcast
5:40 PM 53.6 °F - 50.0 °F 88% 29.70 in 10.0 mi WSW 6.9 mph - N/A   Overcast
6:00 PM 53.6 °F - 50.0 °F 88% 29.71 in 10.0 mi WSW 8.1 mph - N/A   Overcast
6:20 PM 53.6 °F - 50.0 °F 88% 29.71 in 10.0 mi WSW 5.8 mph - N/A   Overcast
6:40 PM 53.6 °F - 50.0 °F 88% 29.71 in 10.0 mi WSW 9.2 mph - N/A   Overcast
7:00 PM 51.8 °F - 51.8 °F 100% 29.71 in 7.0 mi WSW 11.5 mph - N/A   Overcast
7:20 PM 51.8 °F - 51.8 °F 100% 29.72 in 10.0 mi West 10.4 mph 20.7 mph N/A   Overcast
7:40 PM 51.8 °F - 51.8 °F 100% 29.72 in 4.0 mi WSW 8.1 mph 19.6 mph N/A   Overcast
8:00 PM 51.8 °F - - N/A% 29.72 in 10.0 mi West 16.1 mph 23.0 mph N/A   Overcast
8:20 PM 50.0 °F - - N/A% 29.75 in 10.0 mi WNW 16.1 mph 27.6 mph N/A   Overcast
8:40 PM 50.0 °F - - N/A% 29.76 in 10.0 mi West 13.8 mph 24.2 mph N/A   Overcast
9:00 PM 48.2 °F - - N/A% 29.77 in 10.0 mi West 11.5 mph 25.3 mph N/A   Overcast
9:20 PM 48.2 °F - - N/A% 29.77 in 10.0 mi WNW 15.0 mph 28.8 mph N/A   Overcast
9:40 PM 46.4 °F 39.2 °F - N/A% 29.78 in 10.0 mi WNW 18.4 mph 28.8 mph N/A   Overcast
10:00 PM 46.4 °F 39.8 °F - N/A% 29.80 in 10.0 mi WNW 16.1 mph 24.2 mph N/A   Overcast
10:20 PM 44.6 °F 39.2 °F - N/A% 29.82 in 10.0 mi WNW 10.4 mph 20.7 mph N/A   Overcast
10:40 PM 44.6 °F 39.2 °F - N/A% 29.83 in 10.0 mi WNW 10.4 mph 17.3 mph N/A   Overcast
11:00 PM 42.8 °F 36.2 °F - N/A% 29.86 in 7.0 mi WNW 12.7 mph 19.6 mph N/A   Overcast
11:20 PM 42.8 °F 36.6 °F 42.8 °F 100% 29.87 in 10.0 mi WNW 11.5 mph 19.6 mph N/A   Overcast
11:40 PM 41.0 °F 32.5 °F 41.0 °F 100% 29.88 in 10.0 mi West 17.3 mph 26.5 mph N/A   Overcast